EW2984 Weather Reports


Display with metric or nautical units.
time (UTC)temp
F
wind
direction
speed
MPH
gust
MPH
rain 1hr
in
rain 24hr
in
rain mn
in
humidity
%
barometer
mb
20260904203007 85 235 0.0 2.0 0.00 0.00 0.00 70 1011.7
20260904201506 86 219 0.0 1.0 0.00 0.00 0.00 68 1011.9
20260904200005 86 232 0.0 2.0 0.00 0.00 0.00 68 1012.0
20260904194505 86 211 0.0 3.0 0.00 0.00 0.00 68 1011.9
20260904193003 87 207 0.0 1.0 0.00 0.00 0.00 63 1012.0
20260904191503 87 82 0.0 1.0 0.00 0.00 0.00 67 1012.4
20260904190000 88 224 0.0 0.0 0.00 0.00 0.00 69 1012.9
20260904184557 86 221 0.0 1.0 0.00 0.00 0.00 70 1013.1
20260904183055 86 220 0.0 1.0 0.00 0.00 0.00 72 1013.3
20260904181555 85 205 0.0 3.0 0.00 0.00 0.00 70 1013.3
20260904180049 83 186 0.0 3.0 0.00 0.00 0.00 70 1013.3
20260904174553 82 89 0.0 3.0 0.00 0.00 0.00 73 1013.3
20260904173050 82 122 0.0 1.0 0.00 0.00 0.00 73 1013.4
20260904171554 81 121 0.0 2.0 0.00 0.00 0.00 78 1013.7
20260904170040 81 219 0.0 2.0 0.00 0.00 0.00 76 1013.6
20260904164547 81 162 0.0 2.0 0.00 0.00 0.00 76 1013.7
20260904163038 81 141 0.0 4.0 0.00 0.00 0.00 75 1013.8
20260904161536 81 217 0.0 3.0 0.00 0.00 0.00 76 1013.9
20260904160034 80 228 0.0 2.0 0.00 0.00 0.00 76 1014.0
20260904154532 80 232 0.0 2.0 0.00 0.02 0.00 75 1014.0
20260904153034 79 212 0.0 2.0 0.00 0.02 0.00 75 1014.0
20260904151530 79 228 0.0 3.0 0.00 0.02 0.00 79 1014.1
20260904150036 79 226 0.0 1.0 0.00 0.02 0.00 77 1014.0
20260904144527 79 160 0.0 1.0 0.00 0.03 0.00 78 1014.2
20260904143026 79 256 0.0 1.0 0.00 0.03 0.00 78 1014.1
20260904141528 78 226 0.0 1.0 0.00 0.03 0.00 79 1014.0
20260904140020 77 56 0.0 1.0 0.00 0.03 0.00 83 1014.1
20260904134517 75 232 0.0 1.0 0.00 0.03 0.00 84 1014.1
20260904133016 74 222 0.0 2.0 0.00 0.03 0.00 86 1013.9
20260904131514 74 107 0.0 1.0 0.00 0.03 0.00 88 1014.0
20260904130014 73 163 0.0 3.0 0.00 0.03 0.00 89 1014.2
20260904124514 72 217 0.0 0.0 0.00 0.03 0.00 90 1014.4
20260904123013 71 216 0.0 3.0 0.00 0.03 0.00 92 1014.3
20260904121513 70 225 0.0 0.0 0.00 0.03 0.00 94 1014.5
20260904120011 69 225 0.0 0.0 0.00 0.04 0.00 96 1014.6
20260904114510 69 225 0.0 0.0 0.00 0.04 0.00 97 1014.5
20260904113010 68 225 0.0 0.0 0.00 0.04 0.00 97 1014.4
20260904111506 68 225 0.0 0.0 0.00 0.04 0.00 96 1014.0
20260904110004 68 225 0.0 0.0 0.00 0.06 0.00 95 1013.8
20260904104606 68 225 0.0 1.0 0.00 0.06 0.00 95 1013.6
20260904103109 69 226 0.0 0.0 0.00 0.06 0.00 95 1013.4
20260904101558 69 229 0.0 1.0 0.00 0.06 0.00 95 1013.3
20260904100056 69 231 0.0 0.0 0.00 0.06 0.00 95 1013.4
20260904094556 69 222 0.0 1.0 0.00 0.34 0.00 95 1013.4
20260904093055 69 222 0.0 0.0 0.00 0.34 0.00 95 1013.2
20260904091606 69 222 0.0 0.0 0.00 0.34 0.00 95 1013.0
20260904090053 69 222 0.0 0.0 0.00 0.34 0.00 95 1013.4
20260904084553 69 222 0.0 0.0 0.00 0.34 0.00 95 1013.4
20260904083106 69 222 0.0 0.0 0.00 0.34 0.00 95 1013.5
20260904081551 69 222 0.0 0.0 0.00 0.34 0.00 95 1013.4
20260904080050 69 222 0.0 0.0 0.00 0.34 0.00 94 1013.4
20260904074603 69 222 0.0 0.0 0.00 0.34 0.00 94 1013.4
20260904073051 69 222 0.0 0.0 0.00 0.34 0.00 94 1013.2
20260904071548 69 222 0.0 0.0 0.00 0.34 0.00 94 1013.3
20260904070051 70 222 0.0 1.0 0.00 0.34 0.00 93 1012.9
20260904064546 70 222 0.0 1.0 0.00 0.34 0.00 92 1012.4
20260904063047 70 226 0.0 2.0 0.00 0.34 0.00 91 1012.3
20260904061544 70 231 0.0 1.0 0.00 0.34 0.00 91 1012.2
20260904060042 70 225 0.0 0.0 0.00 0.34 0.00 91 1011.8
20260904054541 71 225 0.0 0.0 0.00 0.34 0.00 90 1011.9
20260904053038 72 225 0.0 0.0 0.00 0.34 0.00 89 1012.2
20260904051534 72 225 0.0 0.0 0.00 0.34 0.00 88 1012.4
20260904050031 73 226 0.0 1.0 0.00 0.34 0.00 87 1012.6
20260904044529 74 226 0.0 2.0 0.00 0.34 0.00 86 1012.7
20260904043026 74 219 0.0 3.0 0.00 0.34 0.00 88 1012.5
20260904041532 75 208 0.0 2.0 0.00 0.34 0.00 89 1013.0
20260904040020 76 271 0.0 2.0 0.00 0.34 0.34 94 1013.5
20260904034519 76 219 0.0 1.0 0.00 0.34 0.34 95 1013.9
20260904033018 77 214 0.0 3.0 0.00 0.34 0.34 94 1014.2
20260904031518 77 233 0.0 1.0 0.00 0.34 0.34 93 1014.1
20260904030017 78 233 0.0 0.0 0.00 0.34 0.34 92 1014.3
20260904024517 78 233 0.0 0.0 0.00 0.34 0.34 90 1014.2
20260904023017 78 230 0.0 1.0 0.00 0.34 0.34 90 1013.7
20260904021527 78 230 0.0 0.0 0.00 0.34 0.34 90 1013.6
20260904020016 78 230 0.0 0.0 0.00 0.34 0.34 90 1013.7
20260904014515 78 230 0.0 0.0 0.00 0.34 0.34 90 1013.5
20260904013016 78 230 0.0 1.0 0.00 0.34 0.34 89 1013.0
20260904011514 78 230 0.0 0.0 0.00 0.34 0.34 89 1013.3
20260904010014 78 230 0.0 0.0 0.00 0.34 0.34 89 1013.5
20260904004513 78 241 0.0 0.0 0.00 0.34 0.34 88 1013.6
20260904003013 78 241 0.0 0.0 0.00 0.34 0.34 87 1013.8
20260904001516 78 241 0.0 1.0 0.00 0.34 0.34 87 1014.0
20260904000013 79 241 0.0 1.0 0.00 0.34 0.34 85 1014.0
20260903234511 79 242 0.0 0.0 0.00 0.34 0.34 85 1013.6
20260903233011 80 242 0.0 0.0 0.00 0.34 0.34 84 1013.3
20260903231510 81 242 0.0 1.0 0.00 0.34 0.34 82 1013.4
20260903230013 81 242 0.0 0.0 0.00 0.34 0.34 81 1013.3
20260903224508 82 242 0.0 0.0 0.00 0.34 0.34 79 1013.4
20260903223009 83 207 0.0 3.0 0.00 0.34 0.34 76 1013.0
20260903221508 84 221 0.0 2.0 0.00 0.34 0.34 74 1013.0
20260903220007 84 222 0.0 4.0 0.00 0.34 0.34 73 1012.9
20260903214509 85 217 0.0 3.0 0.00 0.34 0.34 71 1013.0
20260903213006 86 214 0.0 1.0 0.00 0.34 0.34 71 1012.9
20260903211505 86 208 0.0 3.0 0.00 0.34 0.34 70 1012.8
20260903210003 86 219 1.0 5.0 0.00 0.34 0.34 69 1013.0
20260903204503 87 255 0.0 2.0 0.00 0.34 0.34 69 1013.0